Погода в Добровольном

Россия / Ставропольский край     45°35′43″N   42°24′05″E
темп.,
°C
ветер,
м/с
пор.,
м/с
влажн.,
%
обл.,
%
осадки,
мм/ч
давл.,
гПа
погр.,
м
6 мая, чт
чт600:00+9вюв33695 0.0 101739
03:00+8юв48710 0.0 1016120
06:00+8юв412740 0.0 1016294
09:00+15юв812525 0.0 10151023
12:00+18юв8104529 0.0 10141361
15:00+19юв784281 0.0 10131497
18:00+17юв4759100 0.0 1013203
21:00+13юв41262100 0.0 1014220
7 мая, пт
пт700:00+12юв61361100 0.0 1014359
03:00+10ююв4106298 0.0 1015218
06:00+10ю3670100 0.0 1016166
09:00+17зюз346098 0.0 1016668
12:00+20з556063 0.1 10161424
15:00+20зсз56450 0.3 10161594
18:00+18зсз35610 0.0 1017186
21:00+13зюз22745 0.0 101811
8 мая, сб
сб800:00+13юз22765 0.0 101810
03:00+12ююв22755 0.0 101712
06:00+13юв33777 0.0 101759
09:00+19юв455626 0.0 1017628
12:00+22юв564714 0.0 10151490
15:00+23юв6645100 0.0 10131604
18:00+20юв4863100 0.0 1013202
21:00+16юв46689 0.0 101280
9 мая, вс
вс900:00+13юв5117511 0.0 1012197
03:00+12юв5127775 0.0 1010212
06:00+12юв51179100 0.0 1008239
09:00+18зюз6865100 0.0 1007759
12:00+15зсз81387100 0.8 1010870
15:00+15зюз111779100 2.8 10121193
18:00+6зсз121887100 0.0 10161027
21:00+7зсз10168299 0.1 10211314
10 мая, пн
пн1000:00+6зсз9167777 0.1 10211362
03:00+6з1017845 0.1 1021716
06:00+6з815815 0.0 1021693
09:00+11з913625 0.0 10201540
12:00+12з10135598 0.4 10192026
15:00+10зсз81271100 1.2 10191395
18:00+10з7147239 0.2 10191375
21:00+7зюз41079100 0.2 1020544